Location: Unspecified
(35.6961°N, 0.0000°E)
Time: 11:55:27
(UTC+00:00)

Vanguard 3 - Pass Details

Date: 28 May 2019
Orbit: 508 x 3263 km, 33.3° (Epoch: 17 June)

Event Time Altitude Azimuth Distance (km) Brightness Sun altitude
Rises 20:54:44 0° 262° (W) 3,119 10.7 -18.3°
Reaches altitude 10° 20:56:40 10° 260° (W) 2,389 10.0 -18.6°
Maximum altitude 21:02:15 75° 176° (S) 1,168 7.7 -19.4°
Enters shadow 21:11:50 12° 93° (E) 3,990 10.3 -20.7°
Drops below altitude 10° 21:12:22 10° 93° (E) 4,175 - -20.7°
Sets 21:16:49 0° 92° (E) 5,639 - -21.3°
